^^
Saratoga-Weather Station Historical Data
Daily Summary for February 13, 2020 Units:  Metric    English   Both
Daily Weekly Monthly Yearly Custom
  High: Low: Average:
Temperature: 7.8 °C 5.6 °C 6.4 °C
Dew Point: 6.6 °C 4.9 °C 5.6 °C
Humidity: 97% 90% 95%
Wind Speed: 14.3km/h 0km/h 0.2km/h
Wind Gust: 14.5km/h - -
Wind- - SE
Pressure: 1025.7 hPa 1012.9 hPa -
Precipitation: 0.2 mm    
Historical Graphs
 
 
Tabular Data for February 13, 2020
Time Temperature Dew Point Pressure Wind Wind Speed Wind Gust Humidity Rainfall Rate (Hourly) solar
00:00 6 °C 5.3 °C 1025.7 hPa Calm     95% 0.0 mm 0 W/m2
00:05 6 °C 5.3 °C 1025.7 hPa Calm     95% 0.0 mm 0 W/m2
00:10 6 °C 5.3 °C 1025.7 hPa Calm     95% 0.0 mm 0 W/m2
00:15 6.1 °C 5.4 °C 1025.7 hPa Calm   1.6 km/h 95% 0.0 mm 0 W/m2
00:20 6.1 °C 5.4 °C 1025.7 hPa Calm     95% 0.0 mm 0 W/m2
00:25 6.1 °C 5.4 °C 1025.7 hPa Calm     95% 0.0 mm 0 W/m2
00:30 6.1 °C 5.4 °C 1025.7 hPa Calm   1.6 km/h 95% 0.0 mm 0 W/m2
00:35 6.1 °C 5.4 °C 1025.7 hPa Calm     95% 0.0 mm 0 W/m2
00:40 6.1 °C 5.4 °C 1025.7 hPa Calm     95% 0.0 mm 0 W/m2
00:45 6.1 °C 5.4 °C 1025.7 hPa Calm     95% 0.0 mm 0 W/m2
00:50 6 °C 5.4 °C 1025.7 hPa Calm     96% 0.0 mm 0 W/m2
00:55 6.1 °C 5.5 °C 1025.7 hPa Calm     96% 0.0 mm 0 W/m2
01:01 6 °C 5.4 °C 1025.7 hPa Calm     96% 0.0 mm 0 W/m2
01:06 6 °C 5.4 °C 1025.7 hPa Calm     96% 0.0 mm 0 W/m2
01:11 6 °C 5.4 °C 1025.7 hPa Calm     96% 0.0 mm 0 W/m2
01:16 6 °C 5.4 °C 1025.7 hPa Calm   3.2 km/h 96% 0.0 mm 0 W/m2
01:21 6 °C 5.4 °C 1025.4 hPa Calm     96% 0.0 mm 0 W/m2
01:26 6 °C 5.4 °C 1025.4 hPa Calm   3.2 km/h 96% 0.0 mm 0 W/m2
01:31 5.9 °C 5.3 °C 1025.4 hPa Calm     96% 0.0 mm 0 W/m2
01:36 5.9 °C 5.3 °C 1025.4 hPa Calm   1.6 km/h 96% 0.0 mm 0 W/m2
01:41 5.9 °C 5.3 °C 1025.4 hPa Calm     96% 0.0 mm 0 W/m2
01:46 5.9 °C 5.3 °C 1025.4 hPa Calm   1.6 km/h 96% 0.0 mm 0 W/m2
01:51 5.9 °C 5.3 °C 1025.4 hPa Calm     96% 0.0 mm 0 W/m2
01:56 5.9 °C 5.3 °C 1025.4 hPa Calm     96% 0.0 mm 0 W/m2
02:01 5.9 °C 5.3 °C 1025.4 hPa Calm     96% 0.0 mm 0 W/m2
02:06 5.9 °C 5.3 °C 1025.1 hPa Calm     96% 0.0 mm 0 W/m2
02:11 5.9 °C 5.3 °C 1025.1 hPa Calm     96% 0.0 mm 0 W/m2
02:16 5.9 °C 5.3 °C 1025.1 hPa Calm     96% 0.0 mm 0 W/m2
02:21 5.9 °C 5.3 °C 1025.1 hPa Calm     96% 0.0 mm 0 W/m2
02:26 5.9 °C 5.3 °C 1025.1 hPa Calm     96% 0.0 mm 0 W/m2
02:31 5.9 °C 5.3 °C 1025.1 hPa Calm     96% 0.0 mm 0 W/m2
02:36 5.9 °C 5.3 °C 1025.1 hPa Calm     96% 0.0 mm 0 W/m2
02:41 5.9 °C 5.3 °C 1024.7 hPa Calm     96% 0.0 mm 0 W/m2
02:47 5.9 °C 5.3 °C 1024.7 hPa Calm   1.6 km/h 96% 0.0 mm 0 W/m2
02:52 5.9 °C 5.3 °C 1024.7 hPa Calm     96% 0.0 mm 0 W/m2
02:57 5.9 °C 5.3 °C 1024.7 hPa Calm     96% 0.0 mm 0 W/m2
03:02 5.9 °C 5.3 °C 1024.7 hPa Calm     96% 0.0 mm 0 W/m2
03:07 5.9 °C 5.3 °C 1024.7 hPa Calm     96% 0.0 mm 0 W/m2
03:12 5.9 °C 5.3 °C 1024.7 hPa Calm     96% 0.0 mm 0 W/m2
03:17 5.9 °C 5.3 °C 1024.7 hPa Calm     96% 0.0 mm 0 W/m2
03:22 5.9 °C 5.3 °C 1024.7 hPa Calm     96% 0.0 mm 0 W/m2
03:27 5.9 °C 5.3 °C 1024.7 hPa Calm     96% 0.0 mm 0 W/m2
03:32 5.9 °C 5.3 °C 1024.7 hPa Calm   3.2 km/h 96% 0.0 mm 0 W/m2
03:37 5.9 °C 5.3 °C 1024.7 hPa Calm     96% 0.0 mm 0 W/m2
03:42 5.8 °C 5.2 °C 1024.7 hPa Calm     96% 0.0 mm 0 W/m2
03:47 5.8 °C 5.2 °C 1024.4 hPa Calm     96% 0.0 mm 0 W/m2
03:52 5.8 °C 5.2 °C 1024.4 hPa Calm     96% 0.0 mm 0 W/m2
03:57 5.8 °C 5.2 °C 1024.0 hPa Calm     96% 0.0 mm 0 W/m2
04:02 5.8 °C 5.2 °C 1024.0 hPa Calm   3.2 km/h 96% 0.0 mm 0 W/m2
04:07 5.8 °C 5.2 °C 1024.0 hPa Calm     96% 0.0 mm 0 W/m2
04:12 5.8 °C 5.2 °C 1024.0 hPa Calm     96% 0.0 mm 0 W/m2
04:17 5.8 °C 5.2 °C 1024.0 hPa Calm     96% 0.0 mm 0 W/m2
04:22 5.8 °C 5.2 °C 1024.0 hPa Calm     96% 0.0 mm 0 W/m2
04:27 5.8 °C 5.4 °C 1024.0 hPa Calm     97% 0.0 mm 0 W/m2
04:32 5.8 °C 5.4 °C 1023.7 hPa Calm     97% 0.0 mm 0 W/m2
04:37 5.8 °C 5.2 °C 1023.7 hPa Calm   1.6 km/h 96% 0.0 mm 0 W/m2
04:42 5.8 °C 5.4 °C 1023.7 hPa Calm     97% 0.0 mm 0 W/m2
04:47 5.8 °C 5.4 °C 1023.4 hPa Calm     97% 0.0 mm 0 W/m2
04:52 5.8 °C 5.4 °C 1023.4 hPa Calm   1.6 km/h 97% 0.0 mm 0 W/m2
04:57 5.8 °C 5.4 °C 1023.4 hPa Calm     97% 0.0 mm 0 W/m2
05:02 5.8 °C 5.4 °C 1023.4 hPa Calm   1.6 km/h 97% 0.0 mm 0 W/m2
05:07 5.8 °C 5.4 °C 1023.4 hPa Calm     97% 0.0 mm 0 W/m2
05:12 5.8 °C 5.2 °C 1023.4 hPa Calm   1.6 km/h 96% 0.0 mm 0 W/m2
05:17 5.7 °C 5.3 °C 1023.4 hPa Calm     97% 0.0 mm 0 W/m2
05:22 5.7 °C 5.3 °C 1023.4 hPa Calm     97% 0.0 mm 0 W/m2
05:27 5.7 °C 5.1 °C 1023.0 hPa Calm     96% 0.0 mm 0 W/m2
05:32 5.6 °C 5 °C 1023.0 hPa Calm     96% 0.0 mm 0 W/m2
05:37 5.6 °C 5 °C 1023.0 hPa Calm     96% 0.0 mm 0 W/m2
05:42 5.6 °C 5.2 °C 1023.0 hPa Calm     97% 0.0 mm 0 W/m2
05:47 5.6 °C 5.2 °C 1023.0 hPa Calm     97% 0.0 mm 0 W/m2
05:52 5.6 °C 5.2 °C 1022.7 hPa Calm     97% 0.0 mm 0 W/m2
05:57 5.6 °C 5.2 °C 1022.7 hPa Calm     97% 0.0 mm 0 W/m2
06:02 5.7 °C 5.3 °C 1022.7 hPa Calm   1.6 km/h 97% 0.0 mm 0 W/m2
06:07 5.7 °C 5.3 °C 1022.7 hPa Calm   1.6 km/h 97% 0.0 mm 0 W/m2
06:12 5.7 °C 5.3 °C 1022.7 hPa Calm     97% 0.0 mm 0 W/m2
06:17 5.8 °C 5.4 °C 1022.7 hPa Calm     97% 0.0 mm 0 W/m2
06:22 5.8 °C 5.4 °C 1022.7 hPa Calm     97% 0.0 mm 0 W/m2
06:27 5.8 °C 5.4 °C 1022.7 hPa Calm     97% 0.0 mm 0 W/m2
06:32 5.8 °C 5.4 °C 1022.4 hPa Calm     97% 0.0 mm 0 W/m2
06:37 5.7 °C 5.3 °C 1022.4 hPa Calm   3.2 km/h 97% 0.0 mm 0 W/m2
06:42 5.7 °C 5.3 °C 1022.4 hPa Calm     97% 0.0 mm 0 W/m2
06:47 5.6 °C 5.2 °C 1022.4 hPa Calm   3.2 km/h 97% 0.0 mm 0 W/m2
06:52 5.6 °C 5.2 °C 1022.4 hPa Calm     97% 0.0 mm 0 W/m2
06:57 5.6 °C 5.2 °C 1022.4 hPa Calm     97% 0.0 mm 0 W/m2
07:02 5.6 °C 5.2 °C 1022.4 hPa Calm     97% 0.0 mm 0 W/m2
07:07 5.6 °C 5.2 °C 1022.4 hPa Calm     97% 0.0 mm 0 W/m2
07:12 5.6 °C 5.2 °C 1022.0 hPa Calm     97% 0.0 mm 0 W/m2
07:17 5.6 °C 5.2 °C 1022.0 hPa Calm     97% 0.0 mm 0 W/m2
07:22 5.6 °C 5.2 °C 1022.0 hPa Calm   3.2 km/h 97% 0.0 mm 0 W/m2
07:27 5.6 °C 5.2 °C 1022.0 hPa Calm     97% 0.0 mm 0 W/m2
07:32 5.6 °C 5.2 °C 1022.0 hPa Calm   1.6 km/h 97% 0.0 mm 0 W/m2
07:37 5.6 °C 5.2 °C 1022.0 hPa Calm     97% 0.0 mm 0 W/m2
07:42 5.7 °C 5.3 °C 1022.0 hPa Calm     97% 0.0 mm 0 W/m2
07:47 5.7 °C 5.3 °C 1022.0 hPa Calm     97% 0.0 mm 0 W/m2
07:52 5.7 °C 5.3 °C 1022.0 hPa Calm     97% 0.2 mm 0 W/m2
07:57 5.7 °C 5.3 °C 1022.0 hPa Calm     97% 0.2 mm 0 W/m2
08:02 5.7 °C 5.3 °C 1022.0 hPa Calm     97% 0.2 mm 0 W/m2
08:07 5.8 °C 5.4 °C 1022.0 hPa Calm     97% 0.2 mm 0 W/m2
08:12 5.7 °C 5.3 °C 1022.0 hPa Calm     97% 0.2 mm 0 W/m2
08:17 5.8 °C 5.4 °C 1021.7 hPa Calm     97% 0.2 mm 0 W/m2
08:22 5.7 °C 5.3 °C 1021.7 hPa Calm     97% 0.2 mm 0 W/m2
08:27 5.7 °C 5.3 °C 1021.7 hPa Calm     97% 0.2 mm 0 W/m2
08:32 5.7 °C 5.3 °C 1021.7 hPa Calm     97% 0.2 mm 0 W/m2
08:37 5.7 °C 5.3 °C 1021.7 hPa Calm   9.7 km/h 97% 0.2 mm 0 W/m2
08:42 5.7 °C 5.3 °C 1021.7 hPa Calm     97% 0.2 mm 0 W/m2
08:47 5.7 °C 5.3 °C 1021.7 hPa Calm   1.6 km/h 97% 0.2 mm 0 W/m2
08:52 5.8 °C 5.4 °C 1021.7 hPa Calm     97% 0.0 mm 0 W/m2
08:57 5.7 °C 5.3 °C 1021.3 hPa Calm   3.2 km/h 97% 0.0 mm 0 W/m2
09:02 5.7 °C 5.3 °C 1021.3 hPa Calm   1.6 km/h 97% 0.0 mm 5 W/m2
09:07 5.7 °C 5.3 °C 1021.3 hPa Calm     97% 0.0 mm 5 W/m2
09:12 5.8 °C 5.4 °C 1021.3 hPa Calm     97% 0.0 mm 7 W/m2
09:17 5.8 °C 5.4 °C 1021.3 hPa Calm     97% 0.0 mm 9 W/m2
09:22 5.8 °C 5.4 °C 1021.3 hPa Calm     97% 0.0 mm 12 W/m2
09:27 5.8 °C 5.4 °C 1021.3 hPa Calm     97% 0.0 mm 14 W/m2
09:32 5.8 °C 5.4 °C 1021.3 hPa Calm   4.8 km/h 97% 0.0 mm 18 W/m2
09:38 5.8 °C 5.4 °C 1021.3 hPa Calm     97% 0.0 mm 16 W/m2
09:43 5.8 °C 5.4 °C 1021.3 hPa NE 1.4 km/h 4.8 km/h 97% 0.0 mm 12 W/m2
09:48 5.9 °C 5.5 °C 1021.3 hPa Calm   1.6 km/h 97% 0.0 mm 12 W/m2
09:53 5.9 °C 5.3 °C 1021.3 hPa Calm   4.8 km/h 96% 0.0 mm 11 W/m2
09:58 5.9 °C 5.3 °C 1021.3 hPa Calm     96% 0.0 mm 11 W/m2
10:03 5.9 °C 5.3 °C 1021.3 hPa Calm   1.6 km/h 96% 0.0 mm 11 W/m2
10:08 5.9 °C 5.3 °C 1021.3 hPa Calm     96% 0.0 mm 12 W/m2
10:13 5.9 °C 5.3 °C 1021.3 hPa Calm     96% 0.0 mm 11 W/m2
10:18 5.9 °C 5.3 °C 1021.3 hPa Calm     96% 0.0 mm 9 W/m2
10:23 5.9 °C 5.3 °C 1021.3 hPa Calm     96% 0.0 mm 12 W/m2
10:28 5.9 °C 5.3 °C 1021.3 hPa Calm     96% 0.0 mm 14 W/m2
10:33 5.9 °C 5.3 °C 1021.3 hPa Calm     96% 0.0 mm 26 W/m2
10:38 6 °C 5.4 °C 1021.3 hPa Calm     96% 0.0 mm 33 W/m2
10:43 6 °C 5.4 °C 1021.3 hPa Calm     96% 0.0 mm 19 W/m2
10:48 6.1 °C 5.5 °C 1021.3 hPa Calm     96% 0.0 mm 26 W/m2
10:53 6.1 °C 5.5 °C 1021.3 hPa Calm   1.6 km/h 96% 0.0 mm 44 W/m2
10:58 6.1 °C 5.5 °C 1021.3 hPa Calm     96% 0.0 mm 30 W/m2
11:03 6.2 °C 5.6 °C 1021.3 hPa Calm   1.6 km/h 96% 0.0 mm 47 W/m2
11:08 6.2 °C 5.6 °C 1021.3 hPa Calm     96% 0.0 mm 39 W/m2
11:13 6.2 °C 5.6 °C 1021.3 hPa Calm     96% 0.0 mm 35 W/m2
11:18 6.3 °C 5.7 °C 1021.3 hPa Calm   1.6 km/h 96% 0.0 mm 42 W/m2
11:23 6.3 °C 5.6 °C 1021.3 hPa Calm     95% 0.0 mm 58 W/m2
11:28 6.3 °C 5.6 °C 1021.3 hPa Calm     95% 0.0 mm 56 W/m2
11:33 6.4 °C 5.7 °C 1021.0 hPa Calm     95% 0.0 mm 70 W/m2
11:39 6.4 °C 5.7 °C 1021.0 hPa Calm   1.6 km/h 95% 0.0 mm 47 W/m2
11:44 6.4 °C 5.7 °C 1021.0 hPa Calm     95% 0.0 mm 42 W/m2
11:49 6.5 °C 5.8 °C 1020.7 hPa Calm     95% 0.0 mm 42 W/m2
11:54 6.6 °C 5.9 °C 1021.0 hPa Calm     95% 0.0 mm 53 W/m2
11:59 6.6 °C 5.9 °C 1021.0 hPa Calm     95% 0.0 mm 47 W/m2
12:04 6.6 °C 5.9 °C 1020.7 hPa Calm     95% 0.0 mm 58 W/m2
12:09 6.6 °C 5.9 °C 1020.7 hPa Calm   1.6 km/h 95% 0.0 mm 79 W/m2
12:14 6.7 °C 6 °C 1020.7 hPa Calm     95% 0.0 mm 95 W/m2
12:19 6.7 °C 6 °C 1020.3 hPa Calm   1.6 km/h 95% 0.0 mm 137 W/m2
12:24 6.8 °C 6.1 °C 1020.3 hPa Calm     95% 0.0 mm 91 W/m2
12:29 6.8 °C 6.1 °C 1020.3 hPa Calm   1.6 km/h 95% 0.0 mm 72 W/m2
12:34 6.9 °C 6.2 °C 1020.3 hPa Calm     95% 0.0 mm 83 W/m2
12:39 6.9 °C 6.2 °C 1020.0 hPa Calm     95% 0.0 mm 113 W/m2
12:44 6.9 °C 6.2 °C 1020.0 hPa Calm     95% 0.0 mm 114 W/m2
12:49 6.9 °C 6.2 °C 1020.0 hPa Calm     95% 0.0 mm 76 W/m2
12:54 7 °C 6.1 °C 1020.0 hPa Calm     94% 0.0 mm 93 W/m2
12:59 7.1 °C 6.2 °C 1019.6 hPa Calm     94% 0.0 mm 111 W/m2
13:04 7.1 °C 6.2 °C 1019.6 hPa Calm   1.6 km/h 94% 0.0 mm 104 W/m2
13:09 7.2 °C 6.3 °C 1019.3 hPa Calm   3.2 km/h 94% 0.0 mm 95 W/m2
13:14 7.2 °C 6.3 °C 1019.3 hPa Calm     94% 0.0 mm 69 W/m2
13:19 7.2 °C 6.3 °C 1019.3 hPa Calm     94% 0.0 mm 54 W/m2
13:24 7.2 °C 6.1 °C 1019.0 hPa Calm     93% 0.0 mm 65 W/m2
13:29 7.2 °C 6.1 °C 1019.0 hPa Calm     93% 0.0 mm 53 W/m2
13:34 7.3 °C 6.2 °C 1019.0 hPa Calm     93% 0.0 mm 35 W/m2
13:39 7.3 °C 6.2 °C 1019.0 hPa Calm     93% 0.0 mm 83 W/m2
13:44 7.3 °C 6.2 °C 1019.0 hPa Calm     93% 0.0 mm 54 W/m2
13:49 7.4 °C 6.3 °C 1018.6 hPa Calm     93% 0.0 mm 86 W/m2
13:54 7.4 °C 6.3 °C 1018.6 hPa Calm     93% 0.0 mm 104 W/m2
13:59 7.4 °C 6.3 °C 1018.6 hPa Calm     93% 0.0 mm 63 W/m2
14:04 7.5 °C 6.4 °C 1018.3 hPa Calm     93% 0.0 mm 63 W/m2
14:09 7.6 °C 6.5 °C 1018.0 hPa Calm     93% 0.0 mm 53 W/m2
14:14 7.5 °C 6.4 °C 1018.0 hPa Calm   1.6 km/h 93% 0.0 mm 51 W/m2
14:19 7.5 °C 6.4 °C 1018.0 hPa Calm     93% 0.0 mm 54 W/m2
14:24 7.5 °C 6.4 °C 1018.0 hPa Calm   3.2 km/h 93% 0.0 mm 42 W/m2
14:29 7.5 °C 6.3 °C 1018.0 hPa Calm     92% 0.0 mm 65 W/m2
14:34 7.5 °C 6.3 °C 1018.0 hPa Calm   3.2 km/h 92% 0.0 mm 65 W/m2
14:39 7.5 °C 6.3 °C 1018.0 hPa Calm     92% 0.0 mm 60 W/m2
14:44 7.5 °C 6.3 °C 1018.0 hPa Calm   1.6 km/h 92% 0.0 mm 62 W/m2
14:49 7.6 °C 6.4 °C 1017.6 hPa Calm     92% 0.0 mm 65 W/m2
14:54 7.6 °C 6.4 °C 1017.3 hPa Calm     92% 0.0 mm 84 W/m2
14:59 7.6 °C 6.4 °C 1017.3 hPa Calm     92% 0.0 mm 83 W/m2
15:04 7.7 °C 6.5 °C 1017.6 hPa Calm     92% 0.0 mm 88 W/m2
15:09 7.7 °C 6.5 °C 1017.3 hPa Calm     92% 0.0 mm 84 W/m2
15:14 7.8 °C 6.6 °C 1017.3 hPa Calm   4.8 km/h 92% 0.0 mm 65 W/m2
15:19 7.8 °C 6.6 °C 1017.3 hPa Calm     92% 0.0 mm 39 W/m2
15:24 7.8 °C 6.4 °C 1017.3 hPa Calm     91% 0.0 mm 32 W/m2
15:29 7.7 °C 6.5 °C 1017.3 hPa Calm   1.6 km/h 92% 0.0 mm 30 W/m2
15:34 7.6 °C 6.4 °C 1016.9 hPa Calm     92% 0.0 mm 28 W/m2
15:39 7.6 °C 6.4 °C 1016.9 hPa Calm   11.3 km/h 92% 0.0 mm 23 W/m2
15:44 7.5 °C 6.1 °C 1016.9 hPa Calm   6.4 km/h 91% 0.0 mm 30 W/m2
15:49 7.5 °C 6.3 °C 1016.9 hPa Calm   9.7 km/h 92% 0.0 mm 30 W/m2
15:54 7.4 °C 6.2 °C 1016.9 hPa Calm     92% 0.0 mm 28 W/m2
15:59 7.4 °C 6.2 °C 1016.9 hPa Calm   12.9 km/h 92% 0.0 mm 30 W/m2
16:04 7.4 °C 6.2 °C 1016.9 hPa Calm     92% 0.0 mm 21 W/m2
16:09 7.4 °C 6.2 °C 1016.9 hPa East 7.9 km/h 12.9 km/h 92% 0.0 mm 19 W/m2
16:14 7.4 °C 6.2 °C 1016.9 hPa Calm   1.6 km/h 92% 0.0 mm 21 W/m2
16:19 7.4 °C 6.2 °C 1016.9 hPa East 4.7 km/h 8 km/h 92% 0.0 mm 16 W/m2
16:24 7.3 °C 6.1 °C 1016.9 hPa Calm     92% 0.0 mm 18 W/m2
16:29 7.3 °C 6.1 °C 1016.9 hPa Calm   4.8 km/h 92% 0.0 mm 11 W/m2
16:34 7.3 °C 6.1 °C 1016.9 hPa Calm   4.8 km/h 92% 0.0 mm 9 W/m2
16:39 7.3 °C 6.1 °C 1016.9 hPa Calm   6.4 km/h 92% 0.0 mm 0 W/m2
16:44 7.3 °C 6.1 °C 1016.9 hPa Calm     92% 0.0 mm 0 W/m2
16:49 7.3 °C 6.1 °C 1016.9 hPa Calm     92% 0.0 mm 0 W/m2
16:54 7.3 °C 6.2 °C 1016.9 hPa Calm     93% 0.0 mm 0 W/m2
16:59 7.2 °C 6.1 °C 1016.6 hPa Calm     93% 0.0 mm 0 W/m2
17:04 7.2 °C 6.1 °C 1016.6 hPa Calm     93% 0.0 mm 0 W/m2
17:09 7.2 °C 6.1 °C 1016.6 hPa Calm     93% 0.0 mm 0 W/m2
17:14 7.2 °C 6.1 °C 1016.6 hPa East 4.8 km/h 4.8 km/h 93% 0.0 mm 0 W/m2
17:19 7.2 °C 6.1 °C 1016.6 hPa Calm   1.6 km/h 93% 0.0 mm 0 W/m2
17:24 7.1 °C 6 °C 1016.6 hPa Calm     93% 0.0 mm 0 W/m2
17:29 7.1 °C 6 °C 1016.6 hPa Calm   12.9 km/h 93% 0.0 mm 0 W/m2
17:34 7.1 °C 6 °C 1016.6 hPa Calm     93% 0.0 mm 0 W/m2
17:39 7.1 °C 6 °C 1016.6 hPa Calm   12.9 km/h 93% 0.0 mm 0 W/m2
17:44 7.1 °C 6 °C 1016.3 hPa East 1.4 km/h 3.2 km/h 93% 0.0 mm 0 W/m2
17:49 7 °C 5.9 °C 1016.6 hPa Calm     93% 0.0 mm 0 W/m2
17:54 7 °C 5.9 °C 1016.6 hPa Calm   4.8 km/h 93% 0.0 mm 0 W/m2
17:59 7 °C 5.9 °C 1016.3 hPa Calm     93% 0.0 mm 0 W/m2
18:04 7 °C 5.9 °C 1016.3 hPa ESE 3.2 km/h 9.7 km/h 93% 0.0 mm 0 W/m2
18:09 6.9 °C 5.8 °C 1016.3 hPa Calm   3.2 km/h 93% 0.0 mm 0 W/m2
18:14 6.9 °C 5.8 °C 1015.9 hPa East 11.1 km/h 11.3 km/h 93% 0.0 mm 0 W/m2
18:19 6.8 °C 5.7 °C 1015.9 hPa ESE 14.3 km/h 14.5 km/h 93% 0.0 mm 0 W/m2
18:24 6.8 °C 5.7 °C 1015.6 hPa Calm     93% 0.0 mm 0 W/m2
18:29 6.7 °C 5.6 °C 1015.6 hPa Calm   14.5 km/h 93% 0.0 mm 0 W/m2
18:34 6.7 °C 5.6 °C 1015.6 hPa Calm   4.8 km/h 93% 0.0 mm 0 W/m2
18:39 6.6 °C 5.7 °C 1015.6 hPa Calm   12.9 km/h 94% 0.0 mm 0 W/m2
18:44 6.5 °C 5.4 °C 1015.2 hPa Calm     93% 0.0 mm 0 W/m2
18:49 6.4 °C 5.4 °C 1015.2 hPa Calm     93% 0.0 mm 0 W/m2
18:54 6.4 °C 5.5 °C 1015.2 hPa Calm     94% 0.0 mm 0 W/m2
18:59 6.3 °C 5.4 °C 1015.2 hPa Calm     94% 0.0 mm 0 W/m2
19:05 6.3 °C 5.4 °C 1015.2 hPa Calm     94% 0.0 mm 0 W/m2
19:10 6.2 °C 5.3 °C 1015.2 hPa Calm     94% 0.0 mm 0 W/m2
19:15 6.2 °C 5.3 °C 1015.6 hPa NNE 1.6 km/h 1.6 km/h 94% 0.0 mm 0 W/m2
19:20 6.2 °C 5.3 °C 1015.6 hPa Calm     94% 0.0 mm 0 W/m2
19:25 6.3 °C 5.4 °C 1015.6 hPa Calm     94% 0.0 mm 0 W/m2
19:30 6.3 °C 5.4 °C 1015.6 hPa Calm     94% 0.0 mm 0 W/m2
19:35 6.3 °C 5.4 °C 1015.6 hPa Calm     94% 0.0 mm 0 W/m2
19:40 6.3 °C 5.4 °C 1015.2 hPa Calm     94% 0.0 mm 0 W/m2
19:45 6.3 °C 5.4 °C 1015.2 hPa Calm     94% 0.0 mm 0 W/m2
19:50 6.3 °C 5.4 °C 1015.2 hPa Calm     94% 0.0 mm 0 W/m2
19:55 6.2 °C 5.3 °C 1015.2 hPa Calm     94% 0.0 mm 0 W/m2
20:00 6.2 °C 5.3 °C 1015.2 hPa Calm     94% 0.0 mm 0 W/m2
20:05 6.2 °C 5.3 °C 1015.2 hPa Calm     94% 0.0 mm 0 W/m2
20:10 6.2 °C 5.3 °C 1014.9 hPa Calm     94% 0.0 mm 0 W/m2
20:15 6.3 °C 5.4 °C 1014.9 hPa Calm     94% 0.0 mm 0 W/m2
20:20 6.3 °C 5.4 °C 1014.6 hPa Calm   1.6 km/h 94% 0.0 mm 0 W/m2
20:25 6.4 °C 5.5 °C 1014.6 hPa Calm     94% 0.0 mm 0 W/m2
20:30 6.4 °C 5.5 °C 1014.6 hPa Calm     94% 0.0 mm 0 W/m2
20:36 6.4 °C 5.5 °C 1014.6 hPa Calm     94% 0.0 mm 0 W/m2
20:41 6.3 °C 5.4 °C 1014.6 hPa Calm     94% 0.0 mm 0 W/m2
20:46 6.3 °C 5.4 °C 1014.6 hPa Calm     94% 0.0 mm 0 W/m2
20:51 6.2 °C 5.3 °C 1014.6 hPa Calm     94% 0.0 mm 0 W/m2
20:56 6.1 °C 5.2 °C 1014.6 hPa Calm     94% 0.0 mm 0 W/m2
21:01 6 °C 5.1 °C 1014.6 hPa Calm     94% 0.0 mm 0 W/m2
21:06 5.9 °C 5 °C 1014.2 hPa Calm     94% 0.0 mm 0 W/m2
21:11 5.8 °C 4.9 °C 1014.2 hPa Calm     94% 0.0 mm 0 W/m2
21:16 5.8 °C 5.1 °C 1014.2 hPa Calm     95% 0.0 mm 0 W/m2
21:21 5.8 °C 5.1 °C 1014.2 hPa Calm     95% 0.0 mm 0 W/m2
21:26 5.8 °C 5.1 °C 1014.2 hPa Calm     95% 0.0 mm 0 W/m2
21:31 5.8 °C 5.1 °C 1014.2 hPa Calm     95% 0.0 mm 0 W/m2
21:36 5.9 °C 5.2 °C 1014.2 hPa Calm     95% 0.0 mm 0 W/m2
21:41 6.1 °C 5.4 °C 1014.2 hPa Calm     95% 0.0 mm 0 W/m2
21:46 6.2 °C 5.5 °C 1014.6 hPa Calm   4.8 km/h 95% 0.0 mm 0 W/m2
21:51 6.4 °C 5.7 °C 1014.6 hPa Calm     95% 0.0 mm 0 W/m2
21:57 6.6 °C 5.9 °C 1014.2 hPa Calm     95% 0.0 mm 0 W/m2
22:02 6.7 °C 6 °C 1014.2 hPa NW 6.4 km/h 6.4 km/h 95% 0.0 mm 0 W/m2
22:07 6.8 °C 6.1 °C 1014.2 hPa Calm     95% 0.0 mm 0 W/m2
22:12 6.9 °C 6 °C 1013.9 hPa Calm   9.7 km/h 94% 0.0 mm 0 W/m2
22:17 7 °C 6.1 °C 1014.2 hPa Calm   3.2 km/h 94% 0.0 mm 0 W/m2
22:22 7 °C 6.1 °C 1013.9 hPa Calm   9.7 km/h 94% 0.0 mm 0 W/m2
22:27 7 °C 6.1 °C 1013.9 hPa WNW 4.7 km/h 6.4 km/h 94% 0.0 mm 0 W/m2
22:32 7.1 °C 6.2 °C 1013.9 hPa Calm     94% 0.0 mm 0 W/m2
22:37 7.1 °C 6 °C 1013.9 hPa West 6.4 km/h 6.4 km/h 93% 0.0 mm 0 W/m2
22:42 7.2 °C 6.1 °C 1013.9 hPa Calm     93% 0.0 mm 0 W/m2
22:47 7.2 °C 6.1 °C 1013.5 hPa Calm   3.2 km/h 93% 0.0 mm 0 W/m2
22:52 7.2 °C 6.1 °C 1013.5 hPa Calm     93% 0.0 mm 0 W/m2
22:57 7.2 °C 6 °C 1013.5 hPa Calm   3.2 km/h 92% 0.0 mm 0 W/m2
23:02 7.3 °C 6.1 °C 1013.5 hPa Calm     92% 0.0 mm 0 W/m2
23:07 7.3 °C 6.1 °C 1013.2 hPa Calm   1.6 km/h 92% 0.0 mm 0 W/m2
23:12 7.3 °C 6.1 °C 1013.2 hPa Calm     92% 0.0 mm 0 W/m2
23:17 7.3 °C 5.9 °C 1013.2 hPa Calm     91% 0.0 mm 0 W/m2
23:22 7.3 °C 5.9 °C 1013.2 hPa Calm     91% 0.0 mm 0 W/m2
23:27 7.3 °C 5.8 °C 1012.9 hPa Calm   1.6 km/h 90% 0.0 mm 0 W/m2
23:32 7.2 °C 5.8 °C 1012.9 hPa Calm     91% 0.0 mm 0 W/m2
23:37 6.9 °C 5.5 °C 1012.9 hPa Calm     91% 0.0 mm 0 W/m2
23:42 6.8 °C 5.4 °C 1012.9 hPa Calm     91% 0.0 mm 0 W/m2
23:47 6.7 °C 5.3 °C 1012.9 hPa Calm   1.6 km/h 91% 0.0 mm 0 W/m2
23:52 6.6 °C 5.2 °C 1012.9 hPa Calm     91% 0.0 mm 0 W/m2
23:57 6.4 °C 5 °C 1012.9 hPa Calm   1.6 km/h 91% 0.0 mm 0 W/m2
Juneau County Weather
Compliments of Weather Underground - 2 mb